This demonstration page uses our WeatherBlox Daily Observations layout. Learn more.

Left ArrowRight Arrow

Hourly Observations for May 7, 2019

Temp ( °F °C ) Dew Point ( °F °C ) Humidity (%) Winds ( mph kmh ) Pressure ( in mb ) Visibility ( mi km ) Precip ( " mm )
12:18 am 00:18 Mostly Cloudy with Light Rain 63 17.2 56 13.3 78 78 NNW 29 46 30.06 1018 10 16 0.00 0.03
12:40 am 00:40 Cloudy with Light Rain 60 15.6 54 12.2 80 80 N 30 48 30.03 1017 10 16 0.00 0.03
12:48 am 00:48 Cloudy with Nearby Thunderstorms 59 15 54 12 82 82 N 23 37 30.05 1018 10 16 0.00 0.03
12:52 am 00:52 Cloudy with Nearby Thunderstorms 59 15 54 12.2 83 83 NNE 25 41 30.01 1016 10 16 0.00 0.03
1:05 am 01:05 Windy with Storms Likely 59 15 54 12.2 83 83 NNE 20 31 30.06 1018 10 16 0.00 0.03
1:52 am 01:52 Cloudy with Nearby Thunderstorms 59 15 55 12.8 87 87 N 8 13 30.09 1019 8 13 0.09 2.29
2:01 am 02:01 Cloudy with Thunderstorms 59 15 56 13.3 90 90 NW 6 9 30.10 1019 7 11 0.02 0.51
2:16 am 02:16 Cloudy with Nearby Thunderstorms 58 14.4 56 13.3 93 93 NW 6 9 30.11 1020 6 10 0.06 1.52
2:29 am 02:29 Cloudy with Rain 58 14.4 56 13.3 93 93 NNW 6 9 30.11 1020 6 10 0.10 2.54
2:38 am 02:38 Cloudy with Thunderstorms 58 14.4 56 13.3 93 93 NNE 7 11 30.10 1019 7 11 0.13 3.30
2:52 am 02:52 Cloudy with Thunderstorms 59 15 56 13.3 90 90 ENE 12 19 30.06 1018 6 10 0.18 4.57
2:59 am 02:59 Cloudy with Rain 59 15 56 13.3 90 90 ENE 14 22 30.06 1018 7 11 0.02 0.51
3:52 am 03:52 Partly Cloudy 61 16.1 55 12.8 81 81 NE 8 13 30.02 1017 10 16 0.04 1.02
4:52 am 04:52 Clear 58 14.4 55 12.8 90 90 SE 8 13 29.99 1016 10 16 0.00 0.00
5:52 am 05:52 Clear 58 14.4 55 12.8 90 90 S 6 9 30.02 1017 10 16 0.00 0.00
6:52 am 06:52 Mostly Cloudy 58 14.4 55 12.8 90 90 S 5 7 30.06 1018 10 16 0.00 0.00
7:43 am 07:43 Mostly Cloudy 60 15.6 56 13.3 86 86 NNW 10 17 30.10 1019 10 16 0.00 0.00
7:52 am 07:52 Partly Cloudy 61 16.1 56 13.3 84 84 N 8 13 30.11 1020 10 16 0.00 0.00
8:52 am 08:52 Sunny 63 17.2 56 13.3 78 78 ENE 7 11 30.07 1018 10 16 0.00 0.00
9:52 am 09:52 Sunny 65 18.3 57 13.9 76 76 ESE 8 13 30.05 1018 10 16 0.00 0.00
10:52 am 10:52 Sunny 67 19.4 58 14.4 73 73 Calm 30.07 1018 10 16 0.00 0.00
11:52 am 11:52 Sunny 72 22.2 60 15.6 66 66 NNE 3 6 30.07 1018 10 16 0.00 0.00
12:52 pm 12:52 Sunny 73 22.8 60 15.6 64 64 VRB 6 9 30.05 1018 10 16 0.00 0.00
1:52 pm 13:52 Sunny 75 23.9 61 16.1 62 62 SSE 8 13 30.02 1017 10 16 0.00 0.00
2:52 pm 14:52 Sunny 78 25.6 61 16.1 56 56 S 10 17 29.98 1015 10 16 0.00 0.00
3:52 pm 15:52 Sunny 79 26.1 60 15.6 52 52 S 8 13 29.96 1015 10 16 0.00 0.00
4:52 pm 16:52 Sunny 79 26.1 61 16.1 54 54 S 9 15 29.94 1014 10 16 0.00 0.00
5:52 pm 17:52 Sunny 79 26.1 61 16.1 54 54 SSE 8 13 29.92 1013 10 16 0.00 0.00
6:52 pm 18:52 Mostly Cloudy 77 25 62 16.7 60 60 ESE 8 13 29.91 1013 10 16 0.00 0.00
7:52 pm 19:52 Mostly Cloudy 76 24.4 62 16.7 62 62 ESE 8 13 29.90 1013 10 16 0.00 0.00
8:52 pm 20:52 Cloudy 75 23.9 63 17.2 66 66 ESE 12 19 29.89 1012 10 16 0.00 0.00
9:15 pm 21:15 Mostly Cloudy with Thunderstorms 75 23.9 63 17.2 66 66 ESE 10 17 29.87 1011 10 16 0.00 0.00
9:30 pm 21:30 Mostly Cloudy with Nearby Thunderstorms 74 23.3 63 17.2 69 69 SE 12 19 29.87 1011 10 16 0.00 0.00
9:52 pm 21:52 Mostly Cloudy 74 23.3 63 17.2 69 69 SE 12 19 29.88 1012 10 16 0.00 0.00
10:52 pm 22:52 Clear 73 22.8 63 17.2 71 71 SSE 13 20 29.88 1012 10 16 0.00 0.00
11:52 pm 23:52 Clear 72 22.2 63 17.2 73 73 S 12 19 29.88 1012 10 16 0.00 0.00

Powered by AerisWeather